Regional Weather Roundup
Issued by NWS

Home | Current Version | Previous Version | Text Only | Print | Product List | Glossary On
Versions: 1 2 3 4 5 6 7 8 9 10 11 12 13 14 15 16 17 18 19 20 21 22 23 24 25 26 27 28 29 30 31 32 33 34 35 36 37 38 39 40 41 42 43 44 45 46 47 48 49 50
000
ASUS43 KTOP 170008
RWRKS

WEATHER ROUNDUP FOR KANSAS
NATIONAL WEATHER SERVICE GOODLAND KS
700 PM CDT TUE SEP 16 2014

NOTE:  "FAIR" INDICATES FEW OR NO CLOUDS BELOW 12,000 FEET WITH NO
SIGNIFICANT WEATHER AND/OR OBSTRUCTIONS TO VISIBILITY.

KSZ001>006-013>018-027>032-041>047-170100-
NORTHWEST KANSAS

CITY           SKY/WX    TMP DP  RH WIND       PRES   REMARKS
GOODLAND       CLEAR     83  54  36 S9        29.99R
6HR MIN TEMP:  74; 6HR MAX TEMP:  86;

HILL CITY      CLEAR     80  62  54 SE8       29.96F
6HR MIN TEMP:  66; 6HR MAX TEMP:  81;

RUSSELL        CLEAR     75  61  61 SE12      29.96F
6HR MIN TEMP:  63; 6HR MAX TEMP:  76;

$$

KSZ061>065-074>080-084>089-170100-
SOUTHWEST KANSAS

CITY           SKY/WX    TMP DP  RH WIND       PRES   REMARKS
DODGE CITY     CLEAR     82  59  45 S16       29.99S
6HR MIN TEMP:  74; 6HR MAX TEMP:  84;

ELKHART          N/A     78  60  53 S7          N/A
GARDEN CITY    CLEAR     82  60  47 S13       29.98S
6HR MIN TEMP:  73; 6HR MAX TEMP:  84;

GREAT BEND     MOCLDY    81  61  50 S16       29.97F
LIBERAL        CLEAR     84  59  42 SW15G23   30.02S
PRATT          CLEAR     77  59  53 S12G17    30.01S
$$

KSZ066>073-081>083-090>101-170100-
SOUTHEAST KANSAS

CITY           SKY/WX    TMP DP  RH WIND       PRES   REMARKS
CHANUTE        CLEAR     74  63  68 SE6       30.03F
6HR MIN TEMP:  71; 6HR MAX TEMP:  77;

COFFEYVILLE    CLOUDY    74  66  76 SE6       30.03S
6HR MIN TEMP:  67; 6HR MAX TEMP:  76;

HUTCHINSON     CLEAR     78  61  55 S15       29.99F
6HR MIN TEMP:  70; 6HR MAX TEMP:  80;

MEDICINE LODGE   N/A     78  63  59 SE8       29.99F
NEWTON         CLEAR     77  59  53 S9        30.02F
PARSONS        CLEAR     74  65  73 S3        30.04F
6HR MIN TEMP:  69; 6HR MAX TEMP:  77;

WICHITA INTL   PTCLDY    78  63  59 S13       30.00F
6HR MIN TEMP:  70; 6HR MAX TEMP:  81;

WICHITA JABRA  CLEAR     76  62  62 S10       30.00F
6HR MIN TEMP:  69; 6HR MAX TEMP:  80;

WICHITA MCCONL CLEAR     77  64  64 SE12      30.01F
WINFIELD       CLEAR     74  65  73 SE10      30.02F
6HR MIN TEMP:  68; 6HR MAX TEMP:  78;

$$

KSZ007>012-019>026-033>040-048>060-102>105-170100-
NORTHEAST KANSAS

CITY           SKY/WX    TMP DP  RH WIND       PRES   REMARKS
CONCORDIA      CLEAR     66  57  72 SE6       30.00F
6HR MIN TEMP:  65; 6HR MAX TEMP:  71;

EMPORIA        CLEAR     73  60  63 SE7       30.01F
6HR MIN TEMP:  69; 6HR MAX TEMP:  76;

LAWRENCE       CLEAR     68  54  60 SE5       30.04S
6HR MIN TEMP:  66; 6HR MAX TEMP:  73;

MANHATTAN      PTCLDY    74  54  49 S7        30.00F
6HR MIN TEMP:  68; 6HR MAX TEMP:  77;

MARYSVILLE     CLOUDY    68  52  56 S5        30.01S
OLATHE IND     CLEAR     68  56  65 SE7       30.05F
6HR MIN TEMP:  66; 6HR MAX TEMP:  73;

OLATHE EXE     CLEAR     67  54  63 SE7       30.04F
6HR MIN TEMP:  65; 6HR MAX TEMP:  71;

SALINA         CLEAR     75  61  61 S6        30.00S
6HR MIN TEMP:  66; 6HR MAX TEMP:  78;

TOPEKA BILLARD CLEAR     71  54  54 E7        30.02F
6HR MIN TEMP:  68; 6HR MAX TEMP:  74;

TOPEKA FORBES  CLEAR     70  53  54 E5        30.02F
6HR MIN TEMP:  66; 6HR MAX TEMP:  74;

$$



USA.gov is the U.S. government's official web portal to all federal, state and local government web resources and services.